Regional Weather Roundup
Issued by NWS

Home | Current Version | Previous Version | Text Only | Print | Product List | Glossary On
Versions: 1 2 3 4 5 6 7 8 9 10 11 12 13 14 15 16 17 18 19 20 21 22 23 24 25 26 27 28
000
ASUS46 KPQR 241610
RWROR

OREGON REGIONAL WEATHER ROUNDUP
NATIONAL WEATHER SERVICE PORTLAND OR
900 AM PDT WED MAY 24 2017

NOTE: "FAIR" INDICATES FEW OR NO CLOUDS BELOW 12,000 FEET WITH
NO SIGNIFICANT WEATHER AND/OR OBSTRUCTIONS TO VISIBILITY.

ORZ001>013-241700-
NORTHWEST OREGON


CITY           SKY/WX    TMP DP  RH WIND       PRES   REMARKS
ASTORIA        CLOUDY    54  47  77 NW13      30.12S
NEWPORT        CLOUDY    52  43  71 N8        30.18R
PORTLAND       CLOUDY    53  38  56 NW9       30.13S
VANCOUVER WA   CLOUDY    53  41  63 NW6       30.13S
SCAPPOOSE      CLOUDY    53  42  66 W7        30.12S
HILLSBORO      CLOUDY    52  42  69 CALM      30.13S
AURORA         CLOUDY    53  39  59 CALM      30.15S
MCMINNVILLE    CLOUDY    51  42  71 CALM      30.15S
SALEM          PTSUNNY   53  39  59 N5        30.13S
CORVALLIS      PTSUNNY   54  39  58 N5        30.14S
EUGENE         FAIR      52  41  66 N20G25    30.12S
$$

ORZ021-028-241700-
SOUTHWEST OREGON


CITY           SKY/WX    TMP DP  RH WIND       PRES   REMARKS
NORTH BEND     FAIR      55  45  67 N13       30.10F
BROOKINGS      FAIR      58  52  80 SW3       29.86F
ROSEBURG       CLOUDY    56  41  57 N10G21    30.07R
SEXTON SUMMIT  FAIR      46  42  86 N12       29.99R
MEDFORD        FAIR      63  48  58 W7        29.95F
$$

ORZ014>016-041-241700-
COLUMBIA GORGE


CITY           SKY/WX    TMP DP  RH WIND       PRES   REMARKS
TROUTDALE      CLOUDY    54  39  57 VRB3      30.13S
HOOD RIVER     FAIR      54  34  47 W7G18     30.04S
THE DALLES     FAIR      57  36  45 NW24G35   30.00F
$$

ORZ029>031-041-044-049-050-061>064-502-503-505>511-241700-
EASTERN OREGON


CITY           SKY/WX    TMP DP  RH WIND       PRES   REMARKS
REDMOND        FAIR      57  19  22 NW9       29.97F
BEND           FAIR      54  25  32 CALM      29.93F
PRINEVILLE     FAIR      54  27  35 MISG      29.98F
KLAMATH FALLS  FAIR      64  38  38 NW12      29.94F
HERMISTON      FAIR      57  37  47 W16       29.95R
PENDLETON      FAIR      52  36  54 W22       29.95R
JOHN DAY       FAIR      56  20  24 W14       29.92F
MEACHAM        FAIR      46  18  32 VRB7      29.93R
LA GRANDE      FAIR      55  28  35 NW16      29.89S
BAKER CITY     FAIR      56  24  29 NW10      29.87F
BURNS          FAIR      57  16  20 W16       29.93S
ROME             N/A     69  40  34 N14       29.86F
ONTARIO        FAIR      66  30  26 NW15      29.83F
$$




USA.gov is the U.S. government's official web portal to all federal, state and local government web resources and services.